This is the latest recevied weather packets stored in our database for station/object KK6LVQ-13. If no packets are shown the sender has not sent any weather packets the latest 10 day(s).
| Time | Temp. | Humidity | Pressure | Rain* | Wind** | Luminosity | Snow |
|---|---|---|---|---|---|---|---|
| 1778179881 | 20.56° C | 64% | 1023.4 hPa | 0 mm | - | 747 W/m² | - |
| 1778179579 | 20.56° C | 66% | 1023.3 hPa | 0 mm | - | 740 W/m² | - |
| 1778179277 | 20° C | 68% | 1023.5 hPa | 0 mm | - | 734 W/m² | - |
| 1778178973 | 20° C | 66% | 1023.4 hPa | 0 mm | - | 727 W/m² | - |
| 1778178670 | 20° C | 69% | 1023.6 hPa | 0 mm | - | 720 W/m² | - |
| 1778178366 | 19.44° C | 73% | 1023.8 hPa | 0 mm | - | 714 W/m² | - |
| 1778178062 | 19.44° C | 73% | 1023.7 hPa | 0 mm | - | 705 W/m² | - |
| 1778177759 | 18.89° C | 72% | 1023.6 hPa | 0 mm | - | 698 W/m² | - |
| 1778177456 | 18.89° C | 74% | 1023.6 hPa | 0 mm | - | 690 W/m² | - |
| 1778177152 | 18.89° C | 74% | 1023.7 hPa | 0 mm | - | 681 W/m² | - |
| 1778176849 | 18.89° C | 75% | 1023.5 hPa | 0 mm | - | 672 W/m² | - |
| 1778176545 | 18.89° C | 75% | 1023.5 hPa | 0 mm | - | 663 W/m² | - |
| 1778176243 | 18.89° C | 75% | 1023.8 hPa | 0 mm | - | 654 W/m² | - |
| 1778175939 | 18.89° C | 76% | 1023.8 hPa | 0 mm | - | 643 W/m² | - |
| 1778175638 | 18.33° C | 75% | 1023.6 hPa | 0 mm | - | 633 W/m² | - |
| 1778175334 | 18.33° C | 77% | 1023.6 hPa | 0 mm | - | 624 W/m² | - |
| 1778175032 | 18.33° C | 77% | 1023.6 hPa | 0 mm | - | 612 W/m² | - |
| 1778174727 | 18.33° C | 78% | 1023.6 hPa | 0 mm | - | 601 W/m² | - |
| 1778174424 | 17.78° C | 78% | 1023.7 hPa | 0 mm | - | 586 W/m² | - |
| 1778174120 | 17.78° C | 78% | 1023.8 hPa | 0 mm | - | 575 W/m² | - |
| 1778173817 | 17.78° C | 78% | 1023.7 hPa | 0 mm | - | 563 W/m² | - |
| 1778173514 | 17.22° C | 79% | 1023.7 hPa | 0 mm | - | 551 W/m² | - |
| 1778173211 | 17.22° C | 80% | 1023.8 hPa | 0 mm | - | 537 W/m² | - |
| 1778172907 | 16.67° C | 81% | 1023.8 hPa | 0 mm | - | 524 W/m² | - |
| 1778172603 | 16.67° C | 81% | 1023.9 hPa | 0 mm | - | 512 W/m² | - |
* Rain latest hour (hover to see other rain measurements)
** Current wind speed in m/s (hover to see current wind gust speed)